Theta_e
332 333 333 332 333 335 338 337 336 339 339 341 339 338 338 336 338 338 341 340 338 335 334 332 331 330 335 331 333 330 333 334 331 338 331 331 330 325 325 332 330 330 331 327 328 329 331 330 329 333 332 334 333 333 336 334 337 336 336 336 334 333 329 334 331 333 330 331 331 328 331 330 328 326 321 320 319 318 318 315 318 313 313 314 311
331 330 331 334 335 335 335 337 338 336 337 338 339 338 338 336 336 338 339 338 338 337 336 338 335 333 332 331 331 327 327 333 328 330 332 326 332 326 334 330 330 330 333 329 331 331 328 328 327 334 334 332 331 334 333 333 334 336 334 333 331 328 329 329 331 331 326 325 324 325 325 328 328 328 324 321 319 318 318 316 319 312 312 312 315
328 330 330 333 335 335 334 335 336 336 336 337 338 339 338 337 338 339 338 338 338 338 337 338 340 338 337 334 338 331 330 331 331 332 327 326 329 327 327 330 329 324 323 325 323 325 329 331 332 335 332 331 332 332 334 331 333 334 334 331 330 327 327 331 330 329 325 326 327 323 319 318 323 324 325 322 322 319 317 317 317 315 314 312 314
326 328 329 331 331 332 333 334 334 334 336 335 335 338 336 338 338 340 339 339 338 338 339 339 342 338 340 335 336 337 334 336 334 332 330 329 331 334 327 326 330 323 322 321 319 322 328 333 334 334 334 334 333 331 332 329 331 334 333 331 330 325 323 324 328 332 327 326 318 317 319 318 315 317 320 322 321 320 318 318 318 317 315 313 312
327 328 329 330 330 331 332 333 335 334 335 336 337 337 335 335 338 338 338 339 338 339 339 338 340 338 339 336 337 340 335 338 330 329 329 330 332 332 326 326 324 324 330 326 321 329 329 334 332 332 335 335 333 333 332 331 329 330 329 329 329 326 323 330 333 330 329 332 326 322 317 316 315 318 320 320 321 317 318 317 318 318 316 314 312
328 327 328 330 330 332 333 333 334 333 334 336 336 337 337 336 336 339 339 338 337 338 339 339 338 338 334 332 330 329 330 332 327 326 326 324 321 325 325 323 323 327 325 330 321 327 327 331 333 330 334 333 335 333 331 330 327 327 326 329 329 331 329 329 327 332 333 333 332 329 327 320 320 320 319 316 321 320 316 317 319 319 317 315 313
327 330 330 329 331 331 333 334 334 333 334 337 337 338 336 337 338 339 338 337 338 337 338 339 336 336 333 329 329 328 328 327 331 333 332 333 331 339 326 328 326 326 327 325 330 330 330 333 332 330 327 335 331 330 330 330 326 324 326 327 327 330 329 325 325 328 329 330 326 327 327 329 324 322 318 317 316 318 318 319 316 317 317 317 314
326 327 328 330 331 331 332 334 335 335 338 339 336 338 339 338 338 339 338 337 335 336 335 337 334 334 334 330 330 327 325 328 327 330 335 335 333 330 331 329 325 327 326 325 329 326 326 329 330 331 327 328 329 327 329 329 331 327 331 334 332 326 331 326 326 327 326 325 325 324 323 323 323 321 321 316 314 312 318 317 316 317 317 317 316
327 326 329 330 331 332 333 333 335 337 337 337 338 338 338 337 339 337 339 337 338 337 334 333 335 334 334 332 332 330 328 329 328 329 327 331 331 340 334 331 339 326 329 328 326 323 329 324 325 325 328 326 327 327 327 325 327 330 332 332 331 332 328 335 331 326 327 324 328 325 321 320 319 319 319 318 314 310 310 310 313 315 316 318 316
327 328 327 330 332 333 334 334 335 336 337 336 337 338 337 337 336 338 337 336 336 337 335 334 333 333 334 333 330 329 329 329 328 326 328 329 326 334 334 332 331 329 329 322 326 325 328 330 321 318 324 325 324 326 330 325 328 330 331 331 332 331 334 332 332 330 328 329 324 324 327 324 320 318 318 316 315 313 307 308 309 311 311 312 318
326 327 328 331 333 333 335 334 335 333 333 334 334 335 338 338 335 335 336 335 336 335 334 334 333 332 332 331 329 327 324 327 327 329 329 327 326 326 328 329 329 332 327 326 323 324 327 327 326 321 323 326 327 322 325 329 330 330 330 329 330 329 329 329 329 328 329 327 325 324 325 324 320 318 317 319 318 315 310 308 308 308 308 310 314
328 329 329 330 331 332 332 332 332 332 331 332 332 335 337 337 337 335 336 336 336 336 335 334 332 332 332 332 328 328 326 321 323 322 321 320 325 328 329 329 330 328 333 330 328 327 329 329 328 324 321 329 324 327 327 324 331 332 330 329 330 330 330 329 328 328 326 325 326 325 325 324 324 321 317 318 317 317 316 312 310 310 311 311 313
327 327 329 330 330 331 332 331 332 332 330 332 334 334 335 335 334 334 334 336 336 336 335 335 333 332 332 332 331 333 329 325 320 323 324 330 328 324 327 328 328 328 331 329 327 325 325 323 325 325 326 330 328 328 327 324 329 331 330 327 326 328 328 327 327 327 326 326 325 327 326 322 321 321 324 323 322 322 320 314 312 313 310 310 311
326 327 328 329 330 330 332 330 331 332 333 333 334 335 335 334 337 335 334 336 337 336 335 335 334 335 335 332 331 330 329 329 333 328 323 323 329 327 326 327 328 328 328 327 326 323 322 324 323 325 325 327 328 326 324 324 327 326 328 328 328 327 328 328 327 325 326 328 327 325 324 322 322 322 321 322 320 318 316 315 314 315 312 310 310
326 327 330 329 331 332 331 332 332 331 333 335 333 334 334 334 336 334 334 337 337 336 336 335 334 334 335 333 332 332 328 330 335 330 331 327 327 325 330 330 329 327 325 331 327 326 329 323 322 323 324 325 326 326 323 324 325 323 322 328 329 330 329 328 328 327 324 322 324 324 324 322 321 322 322 320 318 317 318 317 314 309 308 309 308
327 327 330 331 331 331 331 333 333 333 332 332 334 334 335 333 335 334 336 337 337 337 336 335 335 334 335 334 334 333 335 330 330 333 332 330 332 333 327 329 333 334 333 332 330 331 327 324 324 321 322 322 323 324 324 321 323 322 322 323 322 323 326 326 325 326 325 325 325 325 323 320 321 320 319 318 318 318 316 317 316 312 307 305 309
325 326 325 331 329 331 333 332 333 334 333 333 333 333 335 335 334 335 336 337 338 337 338 337 336 336 334 334 333 333 334 334 330 330 329 331 330 333 336 330 329 330 331 333 330 332 334 333 331 325 323 323 322 322 321 320 321 322 319 320 318 319 320 319 323 323 324 324 323 322 321 323 323 322 323 322 322 320 317 315 315 313 312 306 305
327 328 329 330 331 332 332 332 332 333 334 333 334 335 335 338 338 337 337 337 338 337 338 337 335 335 335 333 333 334 331 329 332 330 332 334 332 329 330 331 333 331 328 328 332 332 334 329 329 332 331 323 322 321 319 318 319 322 321 320 319 318 317 319 321 320 320 321 320 318 318 318 319 320 321 321 319 318 318 318 316 314 314 310 308
327 328 327 328 330 332 332 333 332 334 335 334 335 336 337 336 337 337 335 335 336 337 338 336 337 337 334 334 334 333 333 333 333 331 336 330 328 327 326 327 330 331 332 330 329 327 329 329 329 327 327 328 326 325 324 324 323 322 320 320 320 320 317 317 318 318 318 318 317 316 316 317 320 320 320 319 319 319 317 316 315 314 312 311 310
326 326 326 328 328 331 332 330 332 333 333 335 333 336 336 338 336 335 337 336 336 335 334 336 335 336 334 334 335 334 333 332 332 334 331 330 327 328 325 326 328 329 330 329 328 326 328 328 327 326 324 325 324 324 324 324 324 322 321 321 319 319 316 315 315 316 315 314 315 315 315 316 318 319 319 318 317 317 317 314 312 312 310 310 310
326 326 326 328 328 332 331 332 334 334 335 336 336 334 336 338 336 335 334 334 335 335 334 334 335 334 334 335 334 335 334 333 333 332 331 330 330 330 330 328 328 327 327 327 327 326 325 327 324 325 324 324 324 326 325 325 324 324 323 322 320 318 315 314 316 315 314 313 312 313 313 315 317 316 315 317 315 314 314 315 313 310 310 310 309
326 329 329 329 331 332 332 331 333 334 335 334 334 332 334 334 334 334 333 333 333 331 331 332 333 334 335 335 335 336 335 333 334 333 333 332 333 333 334 335 330 327 326 325 325 325 326 326 324 323 324 324 325 324 325 325 323 323 324 323 322 321 319 318 316 314 314 314 315 313 311 312 314 313 314 312 312 313 312 311 310 309 307 308 310
326 328 329 328 328 330 330 330 330 330 332 332 332 332 334 335 335 334 332 333 332 332 333 333 333 335 336 337 335 335 335 335 335 335 336 335 338 337 336 332 333 335 329 325 324 325 325 324 324 325 324 324 324 323 325 326 324 323 322 323 323 322 321 320 320 317 314 314 313 314 314 314 316 313 313 312 312 311 311 309 309 309 308 308 308
326 326 328 327 328 329 328 328 328 329 331 331 331 331 332 333 333 332 332 332 332 332 334 332 334 334 334 334 334 336 337 336 333 336 336 338 339 336 334 333 331 333 327 330 328 326 326 325 324 323 323 323 323 324 325 325 324 323 323 322 323 323 322 322 320 319 318 317 315 313 313 314 314 312 312 313 313 312 312 312 310 309 310 309 308
325 325 326 327 327 326 327 326 325 329 330 332 331 331 331 331 332 331 331 333 331 333 333 332 333 334 337 336 334 337 337 335 335 336 336 337 337 336 335 331 331 330 330 329 328 327 326 327 329 324 322 322 323 323 323 323 325 325 324 323 323 322 322 322 321 321 322 319 318 318 316 314 314 312 312 311 311 312 312 311 309 308 307 309 310
324 326 327 327 326 327 329 328 327 328 329 332 331 332 330 330 332 332 333 335 335 335 336 335 336 335 336 338 335 334 335 335 335 335 335 335 335 334 333 333 330 329 330 330 328 327 325 324 324 324 323 321 322 323 323 323 323 324 325 324 323 323 323 322 322 322 321 320 319 319 319 319 316 314 313 312 311 310 311 312 311 309 308 308 308
324 324 325 326 326 326 329 329 328 330 329 330 330 330 330 331 333 334 335 336 335 336 335 334 335 333 334 334 336 336 336 335 335 335 335 334 333 332 331 330 330 330 330 330 329 328 327 325 325 325 325 324 322 322 323 323 323 323 323 323 323 323 323 323 322 322 323 322 321 320 320 320 319 317 316 314 313 313 313 312 313 312 310 309 309
323 324 324 324 325 326 327 327 328 328 329 329 330 331 332 332 332 333 334 335 334 336 334 334 337 334 334 333 335 337 337 336 336 336 335 335 334 333 332 332 331 330 329 329 328 328 329 327 325 325 325 325 326 325 325 324 326 325 323 322 322 323 323 322 322 323 323 322 322 322 321 321 321 321 320 319 317 315 315 314 316 316 316 314 312
321 322 323 323 323 324 325 326 327 328 328 329 329 329 331 331 331 331 332 333 336 336 334 332 332 334 335 336 338 339 340 340 337 337 337 334 334 333 333 331 331 330 330 328 329 330 328 328 327 326 327 327 330 327 326 325 323 322 322 321 322 322 322 321 322 322 322 322 322 322 321 321 322 325 324 323 323 323 321 319 320 321 320 319 318
319 320 321 322 322 323 324 325 325 326 327 328 328 328 329 329 329 330 331 332 334 334 332 332 332 333 334 333 334 337 335 338 337 335 334 333 333 332 331 331 330 331 329 329 330 333 329 328 328 328 326 327 327 328 327 318 312 317 319 320 321 321 320 320 320 320 321 321 321 321 321 323 323 322 321 317 314 315 319 321 321 321 321 320 319
319 320 321 321 322 322 323 323 324 325 326 326 327 328 329 329 329 330 330 331 332 331 332 331 330 331 332 333 333 333 333 333 331 332 332 332 331 331 332 331 331 331 332 330 332 328 328 331 328 326 325 325 325 326 317 307 306 308 319 320 320 320 321 320 319 319 319 320 320 321 321 323 323 322 319 314 311 310 310 311 313 317 321 321 320
318 318 319 320 320 320 321 321 322 324 325 325 325 326 326 327 328 328 329 331 331 331 330 330 330 331 331 330 331 331 331 330 329 329 330 330 331 331 330 331 331 331 331 331 330 329 330 329 329 328 329 329 328 323 311 308 307 306 309 316 318 320 321 321 321 320 319 319 319 320 321 322 322 322 321 322 317 311 308 307 307 308 308 310 313
317 318 318 318 319 319 320 321 321 322 322 323 324 325 324 326 327 327 328 328 327 328 328 329 330 330 330 330 330 330 330 330 330 331 331 331 331 330 329 328 329 330 331 329 329 328 327 329 329 327 327 327 329 316 308 307 306 306 303 310 319 320 320 321 322 323 321 320 319 319 320 321 321 322 322 321 322 321 312 307 308 308 308 306 303
316 317 317 318 319 319 320 321 322 322 322 323 326 325 326 326 326 326 326 326 326 325 325 326 327 327 329 329 329 329 329 330 330 330 330 328 328 328 330 331 329 330 328 327 329 327 327 327 328 328 327 327 328 321 309 307 306 303 301 303 317 319 319 320 321 322 322 321 321 320 320 320 321 322 321 322 321 321 321 319 316 314 314 314 309
316 316 317 317 318 319 320 320 320 321 323 323 322 323 323 324 324 324 324 324 324 324 324 325 325 325 326 327 328 328 328 329 329 329 329 328 328 330 328 328 329 328 328 328 328 327 328 328 328 327 327 325 326 309 304 303 303 303 302 302 314 317 318 319 321 322 323 323 323 323 322 322 322 322 323 315 315 316 317 319 321 320 319 318 318
316 316 317 317 317 318 319 320 321 320 321 321 321 322 322 321 323 323 323 323 323 323 323 323 323 324 325 325 326 326 327 327 328 328 328 328 328 328 327 329 329 329 328 328 328 327 326 325 326 326 325 325 311 294 296 296 297 297 300 315 317 318 318 319 321 322 323 323 322 321 320 320 322 323 318 302 305 312 316 316 317 319 321 321 321
317 317 316 318 319 318 320 321 320 320 319 321 322 322 321 321 321 321 321 321 321 321 321 322 322 323 323 324 324 324 325 325 326 326 325 326 326 326 327 327 326 326 325 325 322 321 323 322 320 320 322 320 309 299 294 295 294 293 303 318 320 320 320 320 321 322 322 322 322 322 323 323 323 321 305 296 297 309 316 316 317 316 317 319 320
316 317 316 317 318 318 319 319 321 321 321 320 320 321 320 320 320 320 320 320 319 319 320 321 321 322 322 323 323 323 323 323 324 323 324 325 326 326 325 326 324 322 320 321 320 319 319 319 317 315 315 316 311 304 295 294 294 293 301 312 318 318 318 319 319 320 320 321 323 320 315 313 313 314 299 295 296 308 313 315 316 316 316 316 318
315 314 313 314 316 316 317 318 318 318 319 321 321 320 318 318 318 318 319 318 318 318 318 318 318 320 321 322 322 322 322 322 321 322 323 323 324 324 326 326 324 322 321 320 320 319 318 317 316 313 314 313 312 307 296 294 294 294 298 305 310 314 315 317 318 319 321 320 321 316 309 301 299 298 292 294 295 306 312 314 315 315 315 315 316
313 313 314 314 314 314 314 315 315 317 319 319 319 318 318 317 317 317 317 316 317 317 317 318 318 319 319 319 320 320 321 320 320 322 323 323 324 324 323 322 321 319 319 318 317 315 314 314 315 314 312 311 312 310 300 294 295 295 295 303 309 311 311 312 314 315 316 315 313 312 308 296 292 293 292 292 293 293 304 312 314 313 312 313 313
312 312 314 312 312 312 311 312 314 316 317 317 317 316 315 316 318 317 316 317 318 318 317 316 316 316 316 316 317 317 318 319 318 319 323 323 323 323 322 320 319 319 319 318 317 316 315 314 314 314 314 312 311 310 306 295 295 295 295 301 308 307 307 307 310 312 311 308 308 305 305 299 293 293 293 293 294 295 298 306 305 305 305 304 304
312 314 313 312 311 311 311 311 313 314 315 315 315 314 314 315 315 315 318 318 317 316 316 315 315 313 315 316 317 318 318 318 318 318 318 320 322 321 322 320 320 319 318 318 317 316 316 316 315 314 315 314 312 309 310 300 295 296 295 296 305 306 304 310 311 309 308 306 305 304 302 298 293 294 293 294 294 295 296 302 298 294 295 297 308
311 311 311 311 310 310 309 310 311 312 313 313 313 312 312 313 313 316 316 317 317 317 315 315 315 314 315 315 316 318 317 317 316 316 316 315 318 320 320 324 322 319 318 317 316 317 317 317 315 315 314 314 313 310 304 306 297 296 296 296 295 300 297 311 309 307 306 306 306 305 304 299 293 294 294 294 294 296 300 297 294 296 297 298 304
310 310 310 311 310 310 310 310 311 311 312 312 312 310 310 310 311 314 315 316 315 317 316 315 316 315 316 315 313 314 315 317 316 315 313 314 313 315 320 321 321 321 319 316 316 315 316 316 314 314 314 313 315 313 306 303 303 296 296 296 296 296 296 306 308 307 307 305 304 303 300 294 294 295 295 295 295 296 297 295 296 297 299 301 306
310 310 311 310 310 310 309 309 310 312 311 310 311 311 311 311 312 313 312 313 315 314 316 316 315 315 315 315 315 312 312 313 316 315 312 310 310 312 311 312 315 319 319 316 317 315 316 315 314 311 313 313 314 315 313 305 300 296 295 295 295 296 297 300 307 307 307 305 297 293 295 297 296 297 298 300 300 299 296 296 297 299 306 307 306
310 311 311 311 311 311 310 309 309 312 312 311 311 310 311 312 313 313 311 311 311 313 314 314 315 319 317 315 315 316 312 314 313 313 315 312 310 308 308 309 310 310 311 312 315 311 313 312 315 312 311 311 313 314 314 312 306 305 300 294 296 297 301 302 305 306 300 296 295 297 299 300 300 300 306 305 305 304 299 299 299 302 306 305 305
309 311 311 310 310 309 309 309 309 311 311 310 311 310 311 311 311 311 311 311 309 312 312 312 314 313 316 319 318 313 318 313 317 315 313 311 310 309 308 307 307 308 309 309 309 309 309 309 309 313 314 309 310 311 311 311 312 313 312 310 303 306 300 299 306 308 302 305 307 306 305 300 300 295 299 302 303 304 305 306 305 305 305 304 304
311 311 311 310 309 308 308 308 308 311 310 310 310 308 309 310 309 310 310 311 313 312 312 311 312 312 311 312 314 314 314 318 315 317 317 317 313 309 308 308 307 307 306 306 308 307 308 309 308 306 307 310 309 309 309 307 308 307 307 308 310 311 310 311 310 310 311 312 310 304 302 304 307 306 307 308 307 307 306 305 305 305 304 304 305
310 310 310 309 309 308 308 309 308 309 310 310 310 311 311 315 311 310 310 310 312 311 313 313 313 309 310 308 313 315 311 313 314 316 316 313 311 309 310 307 310 310 308 306 307 307 306 308 309 305 306 307 307 307 308 296 299 293 295 300 304 305 303 304 300 290 298 305 308 310 309 309 309 307 306 307 305 306 305 304 307 306 305 305 305
310 311 310 309 309 308 308 307 308 309 310 308 310 309 310 308 308 309 311 311 312 311 311 313 310 311 309 307 309 313 309 309 311 316 308 308 298 294 301 308 308 298 288 292 296 307 306 304 308 311 311 308 306 307 296 290 292 292 291 291 292 292 292 294 294 291 297 302 305 307 309 308 309 308 306 306 307 307 306 305 306 302 305 307 306
309 309 309 308 308 309 307 307 307 308 308 308 308 308 308 309 309 309 311 309 309 309 308 308 308 308 306 309 308 311 311 309 310 312 311 304 306 308 291 288 294 295 291 288 286 288 285 288 300 309 306 292 296 295 292 293 292 292 292 292 292 292 292 292 292 298 303 304 306 307 307 306 305 306 305 305 304 305 304 305 306 306 306 304 301
Wind_Speed
8 8 8 10 11 10 9 9 7 8 9 7 9 9 9 10 9 8 6 8 6 6 5 6 4 5 3 3 4 5 1 1 4 2 3 4 4 4 4 2 2 2 1 2 3 2 1 3 5 2 3 2 2 3 2 3 1 3 1 0 2 2 3 2 2 1 1 1 2 3 2 2 4 4 5 6 5 4 6 6 3 6 5 5 5
7 8 9 9 8 9 7 5 7 9 7 7 7 11 9 11 10 9 7 7 6 6 6 4 4 4 4 3 2 5 4 2 4 3 2 3 3 6 2 1 0 2 2 2 2 1 3 2 4 2 1 3 4 3 3 3 3 2 2 2 2 3 2 3 3 1 0 2 2 1 2 3 4 5 8 9 2 5 5 6 5 8 6 6 4
8 9 12 7 7 8 6 6 7 8 9 9 9 9 8 8 7 7 7 6 6 6 5 4 3 4 3 4 1 3 5 4 2 3 6 4 6 6 6 2 1 2 5 4 4 3 2 3 2 2 3 3 3 3 2 4 3 2 2 2 2 3 3 3 4 4 4 5 2 1 2 2 3 4 6 8 7 3 8 6 6 6 6 7 6
11 12 12 8 8 8 7 9 7 5 7 10 7 6 7 5 6 6 7 6 5 6 5 4 2 5 3 5 3 1 3 2 3 3 1 2 1 1 3 5 2 3 3 4 6 5 4 1 2 3 2 1 2 2 2 3 3 2 2 3 3 4 3 4 5 5 4 2 2 4 3 2 2 6 7 6 6 7 6 10 8 6 6 6 7
12 13 10 10 10 9 9 9 9 9 9 7 7 8 7 8 6 7 6 6 6 5 5 5 3 4 3 3 2 2 2 1 2 2 1 1 1 1 5 3 3 2 0 2 4 2 3 1 2 3 1 1 2 2 2 3 3 3 4 4 3 4 4 1 1 5 5 4 1 1 2 2 3 2 6 4 4 6 6 6 7 7 7 7 8
11 12 12 10 10 9 9 10 10 10 9 8 7 7 6 8 9 7 6 6 6 6 5 4 4 2 4 4 3 2 2 2 4 2 5 5 5 5 5 6 4 2 1 1 2 2 3 1 2 4 1 2 2 3 3 4 5 4 4 4 3 3 1 1 2 1 2 3 3 3 1 2 2 3 3 3 6 6 5 5 3 6 5 7 8
5 9 11 12 10 9 9 9 9 10 8 6 7 7 8 8 7 7 6 5 6 7 5 4 4 3 4 5 4 3 3 2 1 2 2 2 2 2 6 5 2 3 1 3 1 1 1 0 2 3 4 2 3 3 4 4 4 6 4 5 5 3 4 3 3 2 2 3 4 4 4 3 6 3 2 4 1 4 3 2 4 6 6 6 7
3 7 12 12 12 12 10 10 9 8 6 5 1 4 6 7 7 6 5 5 7 8 7 5 5 5 5 5 4 6 5 4 4 3 2 1 2 3 4 5 4 3 3 2 2 2 2 2 2 2 3 3 4 5 4 4 3 4 3 1 2 4 2 5 4 3 4 3 4 4 5 7 7 6 7 5 3 1 1 4 5 3 4 6 7
7 7 9 12 11 12 11 10 8 8 5 6 5 4 4 6 6 6 4 7 5 8 8 8 6 6 6 3 3 4 5 4 4 4 5 2 1 2 2 3 2 5 2 1 2 3 2 3 3 3 3 4 3 4 4 4 5 3 3 3 1 1 3 0 1 2 0 1 1 4 4 3 4 5 7 3 3 3 3 4 5 6 5 4 7
7 9 7 8 11 10 9 8 9 7 5 3 3 3 6 4 6 7 8 7 7 7 8 8 7 6 4 4 4 4 3 3 4 5 5 5 4 2 2 1 3 4 2 3 0 2 1 1 2 3 3 3 4 4 2 5 3 3 3 3 1 1 2 2 1 1 1 1 2 4 0 1 3 3 4 3 3 3 5 5 5 4 4 4 5
10 8 8 4 5 9 8 8 8 9 4 6 6 6 5 5 6 8 9 7 7 8 8 9 7 7 5 5 5 5 6 5 4 3 4 6 5 4 5 4 4 1 6 4 4 2 2 1 2 3 3 3 2 3 4 2 2 2 3 3 2 1 1 1 2 1 1 2 3 3 3 1 4 3 3 3 3 1 2 5 6 6 7 4 7
8 7 8 10 8 6 8 7 7 11 9 7 4 4 4 4 7 10 10 8 9 8 9 8 8 8 5 7 8 6 4 5 5 4 5 7 6 4 5 5 5 5 3 4 3 3 2 2 2 3 4 0 3 2 3 4 2 0 1 3 3 1 1 1 1 1 0 1 2 2 3 4 3 4 4 5 4 4 2 3 5 6 7 6 2
11 7 8 8 7 8 8 9 8 10 8 10 9 8 6 7 9 11 11 10 8 8 9 8 8 7 6 6 5 3 3 5 6 6 3 2 5 7 5 5 5 3 3 4 6 5 3 5 3 2 2 1 2 1 2 3 2 1 1 3 3 2 1 2 2 1 2 2 2 2 2 3 5 4 3 3 3 3 3 3 4 5 5 4 5
10 10 9 9 10 9 9 9 9 9 9 10 8 8 9 9 9 7 9 10 8 8 8 7 7 5 5 6 6 4 4 3 2 2 7 7 5 5 6 6 5 5 4 4 4 6 7 6 5 3 3 2 2 2 3 4 2 2 2 2 2 2 2 2 3 3 3 2 1 2 2 4 5 5 4 4 4 3 3 3 3 3 3 5 5
7 5 9 12 11 10 7 8 8 7 7 8 9 9 6 6 6 11 12 9 9 9 8 8 7 6 5 5 5 4 4 4 2 2 3 1 4 5 3 4 5 5 6 3 5 4 4 6 8 4 3 3 2 3 3 3 2 2 3 2 1 1 1 2 2 3 4 5 4 3 3 4 5 5 4 5 4 5 3 3 5 6 5 4 5
3 1 4 8 11 9 7 7 7 8 8 7 7 5 5 4 7 8 9 8 8 8 7 8 7 6 6 6 6 6 3 5 5 3 4 3 1 1 6 4 3 2 2 2 3 2 4 5 6 5 5 5 4 3 3 3 3 2 3 2 3 2 2 2 3 2 3 3 3 3 4 5 5 6 6 6 6 5 5 4 3 3 3 4 4
2 6 4 5 9 9 8 9 6 5 8 7 5 3 1 6 10 10 9 8 7 5 6 6 7 7 8 7 7 5 4 4 6 6 6 5 4 2 1 3 5 4 3 3 3 3 2 2 2 4 6 5 5 4 3 3 3 3 4 3 3 3 3 3 3 4 3 3 4 4 4 3 4 4 4 3 3 3 4 6 4 4 4 5 4
9 10 10 7 6 7 9 8 9 9 9 9 7 5 7 9 6 4 4 5 3 2 5 5 5 6 7 8 8 6 6 8 7 7 5 3 6 5 3 2 2 4 5 4 3 3 2 3 3 1 2 5 5 4 4 4 4 3 3 3 4 4 4 3 3 3 4 3 4 4 4 6 4 4 5 4 5 5 3 3 3 5 3 6 4
6 6 5 5 4 3 4 7 8 8 6 7 8 11 9 6 5 4 5 4 3 1 1 2 5 5 7 8 8 8 6 6 5 6 3 5 5 7 7 5 4 4 4 5 4 4 4 4 4 4 4 4 5 5 5 3 3 4 4 4 3 3 4 4 4 4 4 4 4 5 5 5 4 5 4 5 4 4 6 3 5 5 6 4 4
8 6 3 5 3 4 6 6 2 4 4 6 6 5 4 4 5 4 4 3 3 4 3 1 4 6 8 7 8 9 8 8 5 4 7 7 7 6 9 8 7 5 5 6 5 5 4 3 4 6 6 5 6 7 7 6 5 4 4 5 4 4 4 4 4 4 5 5 5 6 6 5 4 4 4 5 4 4 3 5 5 6 7 7 5
9 9 5 3 5 3 5 4 5 6 6 5 4 4 2 2 5 6 4 3 3 3 1 4 3 10 10 8 8 9 10 8 8 8 7 7 6 5 5 8 8 7 7 6 5 5 6 4 5 5 7 7 6 5 6 6 5 6 6 4 5 6 6 4 4 5 5 5 5 5 6 6 5 5 5 5 6 6 5 6 5 6 6 5 6
9 8 8 8 7 6 5 4 5 5 3 3 4 2 2 2 4 4 3 1 2 2 1 5 8 11 9 7 8 8 9 7 7 8 6 6 5 5 4 3 5 8 8 7 7 7 6 7 8 7 6 6 6 7 7 7 7 5 5 7 6 6 6 5 5 6 5 6 4 5 6 5 6 8 6 7 6 6 7 6 6 7 7 7 5
6 6 7 10 7 4 6 7 7 6 3 3 2 3 2 2 2 2 2 2 4 6 8 11 11 11 9 6 7 6 3 6 7 5 3 4 2 1 2 3 3 2 4 7 8 8 7 7 7 7 7 6 6 5 5 6 7 8 8 6 6 6 5 5 5 6 7 6 6 6 6 5 4 4 5 6 6 6 6 7 8 7 8 8 8
10 8 6 7 8 6 8 9 7 5 3 4 2 2 6 6 2 1 1 1 2 1 2 5 8 7 6 2 5 6 3 4 4 3 4 3 2 2 2 3 3 3 5 4 6 7 5 6 8 7 7 8 7 7 6 5 7 8 8 8 7 6 7 6 7 7 7 6 7 7 7 7 6 6 5 5 6 6 7 6 6 5 5 7 8
11 10 10 9 10 11 9 7 3 2 2 1 4 3 4 4 3 4 7 9 10 11 10 10 10 8 7 6 4 2 2 3 4 3 3 2 2 2 2 4 4 5 5 5 4 5 6 4 2 5 8 8 9 9 9 7 6 5 6 7 7 7 7 7 8 8 8 7 6 6 6 7 7 7 6 6 5 6 7 7 8 7 7 5 4
8 7 8 9 9 7 8 7 6 7 4 4 2 5 7 7 5 2 4 4 5 4 4 5 4 4 4 3 5 7 5 4 4 4 5 4 4 4 4 4 7 7 6 4 5 6 5 7 7 7 10 9 8 9 10 9 8 6 6 6 6 6 7 7 6 7 9 9 8 7 7 7 7 9 8 8 7 7 7 7 7 6 7 6 7
12 10 8 9 10 10 7 9 6 7 6 6 5 5 4 2 1 0 2 2 2 1 1 1 1 1 3 3 4 4 4 4 4 4 4 4 4 5 7 9 8 7 7 5 6 8 7 8 7 7 10 10 8 7 7 8 8 7 6 7 7 8 8 7 7 9 7 7 7 8 8 8 8 7 8 9 8 8 8 8 7 6 6 6 7
11 11 11 11 11 11 10 10 10 9 9 7 6 5 2 4 4 4 3 2 2 1 1 2 2 1 2 3 3 3 2 4 4 3 3 3 3 4 5 5 6 8 9 9 9 9 3 6 8 8 9 8 3 5 7 9 8 7 7 8 7 7 7 7 7 8 8 8 7 8 8 7 8 8 8 8 9 9 8 8 8 7 6 6 7
13 13 12 12 11 11 10 10 10 9 8 8 7 6 6 6 7 6 7 6 4 2 1 1 2 3 3 3 3 2 2 1 1 1 1 2 2 4 4 5 5 6 6 9 9 5 3 7 9 9 7 7 5 3 2 2 4 7 9 12 10 8 6 6 5 6 6 7 9 9 9 9 10 12 11 9 10 9 7 7 7 6 7 7 8
13 12 13 11 10 10 10 9 9 9 9 8 8 8 8 8 8 8 7 6 4 5 6 4 3 2 2 3 3 2 1 1 1 2 2 3 3 6 5 5 5 4 6 7 6 0 3 7 7 1 2 5 6 3 1 3 2 1 4 6 8 7 6 5 6 7 7 7 8 8 10 15 15 15 15 14 12 13 13 10 8 7 8 8 9
12 12 13 11 10 9 9 9 9 8 7 7 7 8 7 8 7 8 8 8 8 7 7 7 7 8 6 4 4 5 4 6 6 4 1 4 6 6 3 4 5 4 3 5 2 6 3 4 4 4 5 5 5 4 4 8 6 8 5 7 6 7 8 7 7 6 6 7 7 10 10 13 15 15 14 16 15 16 16 16 17 16 13 11 9
11 11 11 10 10 9 9 10 9 8 7 7 8 8 7 8 7 8 7 8 8 7 7 7 8 7 9 9 8 9 8 6 4 5 5 4 5 5 4 3 2 4 5 5 5 6 4 3 3 3 2 2 4 2 4 12 10 9 6 4 5 6 6 7 6 5 5 5 6 7 7 9 8 9 11 11 14 17 18 18 19 18 18 19 17
10 12 10 9 10 10 8 7 8 7 8 8 7 7 8 8 8 8 7 8 8 8 8 8 7 7 7 7 7 7 6 6 5 3 2 2 2 4 5 4 4 3 3 5 4 4 5 4 2 1 4 4 4 7 12 10 9 7 6 4 4 5 6 7 7 8 7 7 6 6 7 7 9 13 10 8 7 7 13 19 19 19 19 20 19
11 10 10 9 9 8 8 7 6 8 9 7 5 6 6 8 8 9 9 8 8 9 9 9 10 9 9 9 8 8 7 6 5 5 5 6 7 5 3 3 2 2 3 1 4 5 5 5 3 2 4 4 3 4 3 4 4 5 5 3 3 5 6 7 8 8 8 7 7 7 8 9 10 10 8 8 9 9 8 7 9 10 11 15 17
10 9 9 9 9 7 7 6 10 8 6 7 8 8 8 9 9 9 9 9 9 9 9 8 9 9 9 9 9 9 8 7 7 6 4 4 4 4 5 4 3 3 3 3 3 4 4 4 4 3 3 3 4 12 9 7 6 6 6 3 2 3 5 6 7 7 7 7 6 6 6 7 8 9 8 7 7 7 7 7 6 7 9 11 13
8 9 8 9 10 7 7 9 8 8 8 8 9 9 9 9 9 9 8 8 8 9 9 9 9 9 10 9 9 8 8 9 8 7 6 6 6 6 5 6 5 4 4 5 5 6 7 7 7 6 4 4 10 17 14 14 12 11 5 3 2 3 5 5 7 7 5 5 5 7 9 10 10 10 8 10 6 3 5 7 9 9 7 6 7
9 9 9 9 9 8 7 7 8 7 9 9 8 8 8 9 9 8 8 9 9 10 10 9 9 10 10 9 9 9 8 9 9 9 8 7 7 8 7 6 6 7 7 8 8 7 7 8 8 7 6 7 8 13 14 13 12 14 8 3 4 3 4 6 6 6 5 6 6 7 7 7 6 4 8 10 9 7 5 6 6 7 7 6 5
9 9 9 9 8 8 8 8 8 8 9 9 8 7 8 8 9 9 9 9 10 10 10 10 9 9 9 9 10 9 9 8 8 9 8 7 7 7 8 7 8 8 9 7 7 7 7 7 8 9 8 6 7 11 14 11 11 11 8 6 5 5 5 6 6 7 6 4 7 5 8 5 5 4 8 7 6 4 4 4 5 6 7 7 6
10 9 10 10 8 9 10 10 10 10 9 8 8 9 8 8 8 8 9 9 10 10 9 10 10 10 10 10 9 10 9 8 9 8 7 7 7 6 5 6 6 6 6 5 6 6 6 6 8 9 12 9 7 7 13 12 12 12 8 4 4 5 7 6 6 6 4 5 3 8 11 11 8 9 12 11 10 6 4 4 5 5 5 6 2
10 9 9 9 10 9 10 10 10 11 10 10 7 7 8 9 9 9 9 10 9 9 9 9 9 8 8 9 8 8 8 8 7 5 5 5 4 5 6 6 6 5 5 6 7 7 8 6 6 7 7 8 7 5 9 12 12 12 12 6 5 5 6 7 7 7 7 8 8 7 9 14 13 12 11 10 9 9 6 6 5 4 5 6 4
9 9 8 9 9 10 10 11 10 10 9 9 9 10 10 9 7 7 9 8 8 8 9 9 8 9 9 10 8 8 7 7 7 7 4 4 4 5 5 5 5 5 4 5 5 4 5 5 5 6 7 6 6 6 8 13 13 13 15 11 7 7 6 5 5 6 6 6 7 7 5 11 12 12 11 10 10 10 8 5 7 6 4 5 8
9 7 8 8 9 10 10 10 10 10 10 9 9 8 9 9 8 9 8 7 9 9 8 8 9 9 9 8 7 6 6 6 6 6 8 5 4 5 5 5 3 4 5 4 4 4 3 3 4 5 5 6 7 9 5 9 11 12 12 13 7 7 6 3 7 6 6 6 6 5 5 8 10 10 11 12 11 11 11 7 7 7 9 10 6
8 8 9 8 8 9 10 9 9 9 9 9 9 9 8 8 8 8 8 9 8 8 8 8 8 8 7 7 6 6 5 5 6 7 7 8 7 4 4 2 3 3 4 4 4 2 2 2 3 4 4 5 5 5 6 5 7 10 11 11 10 8 12 7 6 7 7 5 4 5 5 9 9 9 10 11 11 11 9 7 10 12 12 12 9
8 9 8 8 8 8 8 9 8 8 8 8 8 8 8 8 8 7 7 7 8 7 6 6 6 7 5 5 6 6 6 4 5 5 7 7 8 8 3 2 2 2 1 4 3 3 2 1 2 3 4 4 3 4 3 3 4 6 9 9 9 11 10 6 6 5 4 4 4 4 5 7 7 8 7 7 10 10 8 10 11 11 11 8 6
7 7 8 8 8 8 8 8 7 7 7 8 7 7 7 7 5 6 7 7 6 6 5 5 5 5 5 5 4 5 5 6 5 4 5 6 7 7 7 8 6 3 2 2 2 2 2 2 3 3 3 3 3 3 4 3 4 2 4 7 8 8 10 8 5 4 2 1 2 4 4 3 6 7 7 8 9 10 12 12 12 11 9 6 6
6 6 6 6 6 6 7 7 7 6 5 6 6 6 6 4 5 5 6 7 6 5 5 5 4 2 2 3 5 3 4 3 5 4 3 4 5 6 7 7 7 8 8 6 1 1 1 3 2 4 3 3 3 2 3 3 4 3 2 2 2 8 7 7 6 1 2 5 4 5 2 2 4 4 4 4 3 3 4 5 8 8 5 5 5
6 5 5 5 5 6 6 5 5 5 5 5 6 6 5 6 5 5 5 5 5 5 4 4 3 4 3 2 2 4 0 4 2 2 3 3 3 4 5 6 6 6 6 7 8 8 8 8 5 3 2 5 3 4 3 3 3 2 2 1 4 3 4 3 4 3 4 3 2 3 1 1 2 3 4 4 2 0 2 3 3 3 3 2 3
4 4 4 5 5 5 5 5 5 4 4 4 4 5 5 5 6 5 5 5 3 2 2 3 4 4 4 5 3 4 5 1 4 1 1 1 2 3 3 4 3 4 5 5 6 7 6 6 6 6 7 4 4 6 4 5 5 5 5 6 6 4 1 1 2 4 4 3 3 3 5 5 4 4 4 3 2 1 1 1 1 0 2 1 3
5 5 5 5 5 5 4 4 4 3 2 3 3 2 4 3 3 6 5 4 4 5 2 2 2 4 4 6 4 2 4 4 3 4 2 4 3 2 5 3 2 3 3 2 3 4 4 4 5 5 6 6 6 5 4 1 3 2 3 5 5 5 6 6 4 7 8 8 6 6 7 7 6 5 5 2 2 3 3 2 2 0 1 2 1
3 3 3 3 3 3 3 4 4 3 2 2 3 4 3 5 4 3 4 5 3 5 5 2 3 3 3 4 5 3 4 4 4 2 4 3 4 5 4 2 3 1 2 5 4 2 1 2 4 3 3 3 2 3 2 4 5 4 5 6 8 8 9 7 8 11 4 6 8 6 5 2 1 0 1 1 3 3 3 4 4 2 2 0 0
3 3 3 2 1 1 2 2 3 4 4 2 1 3 3 3 3 4 2 5 4 3 4 4 4 4 5 5 5 3 3 4 4 4 3 4 3 4 8 8 8 3 1 2 4 3 2 3 3 1 0 3 0 1 5 7 7 8 9 9 9 10 9 9 6 6 6 5 8 7 4 4 5 5 4 4 5 5 5 5 5 6 5 4 3
Wind_Direction
158 154 173 170 166 160 153 151 164 161 155 168 166 159 148 149 154 157 156 155 156 154 158 174 166 182 138 162 137 119 157 262 124 83 349 51 46 105 84 98 173 144 257 186 163 204 218 275 287 256 292 302 262 249 284 295 225 173 179 143 266 236 255 158 284 96 206 297 120 144 148 201 251 240 245 243 216 149 133 157 141 136 146 146 181
144 163 182 197 145 145 138 120 159 156 148 164 192 151 171 159 162 156 157 159 159 160 164 200 155 163 141 161 150 143 148 234 129 127 195 133 87 84 92 158 106 137 166 284 344 201 181 227 264 249 231 283 266 239 222 267 280 200 179 203 211 246 232 220 139 79 333 241 140 93 185 203 256 296 279 258 218 137 150 152 175 156 170 160 179
164 184 189 167 148 133 138 155 164 154 159 180 174 169 159 157 155 153 158 160 159 163 173 191 147 114 141 117 114 143 151 163 219 139 190 168 146 141 145 129 320 248 179 176 201 199 239 223 256 219 202 225 262 277 220 227 254 238 168 216 250 226 219 226 170 185 108 271 116 89 206 204 256 272 273 271 287 233 142 175 174 170 178 159 161
178 192 187 159 143 173 161 158 151 155 165 188 162 159 150 138 148 157 161 153 155 171 192 123 130 124 119 122 162 202 89 161 172 95 333 69 339 128 118 144 164 282 292 175 210 159 181 177 272 281 206 200 276 257 266 232 229 228 203 228 217 280 230 212 183 165 142 215 231 209 191 191 219 235 245 250 264 272 205 182 170 178 185 168 152
181 189 185 164 166 184 174 161 161 167 182 164 160 165 164 163 160 173 162 158 166 178 139 141 139 136 138 102 76 110 93 91 110 140 146 83 280 183 169 117 145 218 92 343 324 95 136 123 274 287 267 188 246 263 252 254 250 210 215 227 204 209 269 328 202 139 182 166 165 357 265 220 248 258 203 256 229 250 249 233 167 179 182 172 158
181 186 175 171 176 177 177 165 167 175 179 177 163 176 159 167 168 170 153 166 175 146 147 160 143 132 103 121 145 116 91 117 150 189 174 178 221 192 139 153 118 99 345 197 248 351 98 155 275 285 248 155 301 299 255 232 238 230 202 194 227 222 235 38 312 130 144 169 175 185 202 196 280 293 317 203 209 234 212 245 201 194 187 172 171
195 149 167 176 172 171 175 166 174 181 176 170 171 174 169 165 162 166 160 180 156 150 167 152 124 146 166 160 167 154 154 160 197 165 280 205 210 205 101 100 134 117 123 336 29 70 8 125 207 247 284 190 178 255 291 281 254 253 204 185 192 215 169 199 226 217 190 200 215 212 224 203 202 270 283 315 223 254 274 256 223 211 193 186 185
130 193 186 183 176 171 179 175 181 174 159 132 154 181 165 165 157 161 179 175 181 152 176 151 151 170 200 180 169 158 169 181 178 179 169 283 38 353 104 142 132 115 115 212 274 165 196 199 238 246 269 280 177 196 249 274 272 259 281 251 180 203 190 192 199 201 166 216 218 221 220 221 230 248 248 246 253 253 276 279 290 277 214 185 195
164 203 197 180 182 175 178 176 176 150 146 140 177 167 172 163 137 162 211 173 189 155 173 165 161 183 201 154 177 171 175 168 153 183 170 186 278 85 62 28 98 135 146 123 187 289 163 185 223 213 217 266 285 190 204 259 265 276 331 291 306 225 199 154 183 232 269 211 216 231 227 269 289 241 247 266 306 323 268 265 235 237 248 194 187
196 199 190 190 181 178 165 183 157 135 86 96 158 225 168 167 151 181 205 177 175 172 169 166 173 189 179 164 188 173 156 168 191 188 162 146 176 162 93 96 280 131 162 160 337 219 227 208 214 223 213 225 264 293 216 205 257 283 271 304 297 27 45 44 77 285 256 41 13 314 6 297 289 317 332 307 249 241 282 292 295 277 230 244 185
195 202 191 193 176 173 162 138 128 83 128 178 169 198 185 165 177 183 207 175 176 176 174 169 171 198 172 172 185 205 183 171 198 179 133 146 177 168 163 189 226 247 148 152 160 231 222 204 308 285 215 185 226 262 293 288 197 204 282 298 291 260 348 347 324 312 32 22 353 325 317 222 206 272 285 295 322 291 235 254 264 268 272 227 218
201 174 143 168 166 142 138 137 131 140 166 167 186 203 189 185 192 195 195 180 176 178 178 172 179 192 178 179 195 207 189 176 172 213 183 194 173 180 171 183 191 203 186 147 144 193 207 144 190 279 302 333 191 255 293 290 283 170 251 296 315 304 288 321 300 313 327 305 285 307 309 331 295 220 257 279 282 282 302 293 301 308 312 312 268
195 168 163 152 150 161 159 154 154 156 155 163 186 195 195 198 205 196 192 180 176 179 177 175 188 196 176 187 201 182 188 205 196 177 201 208 145 173 187 183 173 197 202 175 177 185 184 167 188 207 276 341 345 318 270 263 287 325 217 213 239 294 245 241 292 290 278 268 281 297 296 301 296 299 292 275 273 284 260 265 277 294 289 305 306
166 181 165 167 165 172 169 164 164 166 167 164 186 187 191 200 189 208 203 175 171 178 182 181 189 202 181 181 206 168 209 201 247 229 178 187 174 181 180 178 180 184 194 198 243 196 171 165 170 188 196 224 187 254 289 317 333 285 264 261 239 205 222 243 221 240 254 246 241 264 285 286 284 300 303 324 309 290 275 265 298 284 301 301 304
120 181 178 168 167 165 158 153 152 157 164 161 201 181 204 184 201 191 197 180 176 180 180 185 186 195 197 204 200 200 192 153 211 219 298 229 182 176 169 164 170 187 206 211 201 210 168 159 161 173 188 197 215 188 228 249 280 314 327 344 321 326 254 240 241 220 217 232 231 229 250 270 289 296 285 272 272 283 275 241 207 252 277 279 283
88 61 157 169 151 150 158 154 145 164 164 173 193 202 187 169 205 208 190 177 181 184 181 184 188 181 197 219 220 201 198 162 176 211 207 219 303 282 163 182 184 184 202 222 260 229 178 148 162 178 176 183 194 203 206 225 207 209 263 290 304 271 239 242 258 244 253 255 242 224 210 223 222 233 249 263 271 272 284 289 277 241 254 284 279
93 165 244 196 148 154 157 147 143 149 170 179 182 181 206 207 191 208 186 169 187 186 183 186 188 183 191 208 225 208 188 189 170 194 209 182 184 206 347 188 185 181 180 211 261 262 164 187 209 185 170 169 181 191 205 213 214 185 189 224 243 263 256 235 221 227 233 237 249 254 253 246 234 242 264 265 245 246 250 255 257 241 206 225 247
170 171 163 159 133 160 156 153 164 177 175 171 162 178 213 227 180 145 99 128 113 146 201 148 226 206 199 203 217 226 201 205 185 196 198 176 168 174 183 242 186 166 177 221 227 229 199 180 180 195 182 168 183 184 206 215 203 183 185 212 214 216 246 259 254 237 219 218 234 235 231 237 238 237 232 245 254 259 274 287 294 286 259 226 221
117 105 73 52 100 161 165 140 168 170 166 162 158 195 197 184 146 136 134 140 127 135 210 202 215 222 213 207 207 213 225 231 189 185 198 198 190 174 183 200 202 189 183 191 207 237 212 182 173 188 203 205 176 182 191 223 223 175 177 208 243 227 205 219 229 231 240 222 222 231 231 234 225 228 233 234 247 219 227 237 256 275 277 265 244
103 105 113 100 58 68 65 83 121 149 160 146 192 240 138 155 130 123 117 154 174 198 218 114 312 271 232 222 210 207 212 228 231 205 190 213 222 195 181 195 196 189 195 198 203 215 228 217 188 196 209 210 198 190 194 194 192 194 184 186 209 248 236 211 222 219 230 231 220 223 227 230 225 227 224 229 239 243 227 225 226 228 244 253 253
103 104 108 97 113 129 125 123 98 65 51 57 69 100 180 193 165 144 155 173 196 211 89 41 303 263 247 226 219 206 210 213 222 212 213 207 211 220 195 187 188 193 198 208 210 211 213 217 235 225 215 208 214 206 190 199 196 184 191 194 204 213 228 227 209 227 231 229 231 230 226 223 219 220 223 217 221 233 232 227 231 240 243 233 222
75 80 88 88 74 84 86 75 101 98 92 80 90 54 23 44 57 89 103 138 84 47 319 210 233 246 236 231 236 208 208 214 218 225 217 210 218 203 211 212 192 194 195 200 208 211 210 213 217 229 236 233 209 205 203 197 194 196 192 197 211 221 227 222 201 209 221 236 234 231 236 238 216 218 213 225 223 215 227 232 222 220 234 248 229
80 88 87 94 95 69 83 74 67 81 82 64 48 98 134 80 81 94 132 229 188 153 184 214 230 236 234 225 252 256 254 222 230 244 253 265 284 241 225 257 267 214 200 204 216 220 207 208 218 212 227 244 244 229 215 199 193 195 209 217 216 217 219 225 222 215 220 214 222 224 227 234 248 240 217 219 225 234 228 226 229 215 218 222 229
72 79 88 88 106 96 69 62 42 5 9 59 71 34 30 30 45 90 120 177 36 285 200 236 247 264 283 302 272 283 316 354 293 228 234 250 281 322 358 313 278 263 247 235 239 244 226 205 213 218 217 218 229 241 234 220 212 204 204 216 223 219 218 220 229 244 251 232 216 216 216 213 216 239 248 231 222 227 245 264 268 258 231 219 217
58 51 49 59 62 76 100 97 88 310 342 125 57 18 55 345 283 219 221 198 197 201 175 195 221 232 229 195 207 247 173 199 231 272 272 255 254 263 249 259 274 266 262 266 267 244 262 275 255 238 230 226 222 223 230 229 225 221 222 219 219 224 227 226 223 226 234 241 237 224 219 207 202 212 226 239 235 233 233 238 247 254 261 268 265
93 79 66 59 65 58 55 73 103 138 169 102 161 124 142 188 219 212 189 177 172 181 178 182 181 219 229 188 159 200 201 217 237 229 239 261 275 272 261 246 247 256 257 255 266 272 251 255 253 254 260 247 227 218 218 220 223 220 216 224 230 229 232 243 249 232 230 229 239 239 230 222 204 204 211 217 228 238 240 239 241 241 244 249 253
93 89 82 78 73 74 77 74 69 75 82 91 87 92 85 70 97 204 75 90 98 86 94 229 277 289 263 227 205 202 199 222 220 219 198 209 244 258 265 265 257 246 248 252 266 260 241 233 241 254 261 261 247 231 224 218 218 230 231 224 218 225 228 233 245 259 267 269 257 242 234 229 229 214 207 210 214 223 231 240 241 239 241 243 252
86 89 85 81 68 63 62 61 56 66 65 64 66 62 45 35 52 65 57 38 44 92 11 282 201 194 286 271 269 289 238 204 209 226 218 217 232 250 248 259 263 267 261 253 245 253 280 297 276 264 261 260 300 21 20 8 12 311 274 247 231 223 223 220 228 238 249 254 261 272 272 254 237 228 222 213 204 216 216 225 228 233 237 238 241
85 74 68 64 66 63 52 48 47 46 49 44 45 65 57 51 45 50 50 41 30 355 3 55 7 313 309 311 308 273 258 220 206 237 297 283 268 251 240 237 236 244 254 271 272 265 269 266 273 281 312 328 24 56 64 18 3 341 309 296 272 250 234 223 221 232 236 240 252 259 271 277 274 274 255 229 223 211 201 213 221 220 232 240 245
80 84 76 66 63 67 68 62 52 46 39 41 45 34 34 37 34 29 38 35 27 28 4 17 347 354 345 330 316 297 258 278 346 351 341 318 305 279 262 257 257 269 281 267 268 3 242 246 259 42 22 340 331 8 324 19 46 227 274 291 303 280 257 244 233 238 245 250 255 256 256 261 258 257 261 256 246 237 225 220 219 219 224 230 237
74 75 76 72 60 56 63 61 55 45 46 38 38 40 27 34 34 38 34 29 32 27 34 14 15 358 0 344 358 355 351 30 29 12 292 225 230 225 254 289 294 289 282 293 304 280 269 153 233 252 267 247 254 260 17 311 317 330 336 326 318 314 300 270 247 233 233 240 250 255 253 250 251 258 260 255 247 236 232 229 230 230 226 228 237
71 70 70 76 78 63 58 64 56 49 49 44 36 33 30 39 37 38 37 38 37 39 32 17 10 12 11 13 11 13 30 48 32 21 26 353 351 330 343 344 350 2 336 327 343 312 308 291 299 276 266 188 221 107 295 270 284 296 314 313 306 304 302 306 300 270 253 246 248 254 254 251 244 238 239 238 234 234 233 231 230 232 236 238 235
62 68 69 64 62 60 51 60 67 55 52 47 44 45 31 32 41 35 35 34 35 32 29 27 18 20 27 26 14 24 31 41 38 20 17 1 359 35 52 33 25 38 21 354 354 322 320 325 267 166 288 281 249 193 218 248 257 271 296 317 300 298 306 298 295 294 283 274 273 281 295 299 288 280 267 260 257 242 233 235 234 237 238 237 240
51 52 61 59 62 63 50 47 66 53 47 48 43 61 58 44 36 37 28 36 37 40 31 20 20 21 26 27 26 22 26 25 35 41 27 16 22 6 37 55 32 57 61 349 274 284 296 299 320 249 236 265 305 288 246 245 272 305 315 321 267 291 288 285 281 284 282 284 286 288 289 289 295 298 298 286 279 279 279 254 246 245 245 248 246
64 53 49 65 67 51 59 38 45 52 48 39 45 47 51 54 45 41 39 34 35 36 37 30 30 22 22 24 25 28 27 31 38 41 43 37 26 24 27 24 23 12 317 302 332 327 307 307 309 302 290 303 353 11 356 348 317 293 293 278 281 286 286 279 281 280 286 284 290 297 297 296 299 298 295 11 6 347 329 311 283 245 242 245 245
72 69 49 52 62 48 28 54 52 40 52 47 47 41 43 57 55 48 45 42 41 42 40 33 30 30 28 27 23 26 26 28 32 33 34 38 30 37 21 9 7 17 10 15 8 4 8 14 15 12 8 18 42 22 23 17 10 4 347 292 270 253 264 278 275 274 276 287 287 289 294 292 288 286 327 4 6 328 295 305 303 299 285 270 268
80 74 65 51 60 52 33 73 67 40 53 51 43 46 50 49 53 53 46 46 45 44 40 38 39 34 38 32 30 28 27 30 35 35 36 32 30 31 30 15 21 32 38 44 55 46 34 34 31 20 21 54 43 24 18 15 9 3 339 288 268 263 257 267 275 278 279 274 271 265 267 278 289 320 8 5 357 346 325 299 290 290 284 277 269
73 80 77 68 57 57 42 37 77 66 51 54 44 42 54 48 48 42 39 37 40 42 40 39 36 41 45 43 38 35 35 37 39 38 39 44 44 50 52 54 54 44 43 38 52 50 43 43 40 37 24 42 50 30 21 12 11 3 352 322 295 283 275 273 277 281 281 288 281 48 55 24 353 349 341 336 350 341 311 297 289 286 286 288 293
70 64 63 69 72 59 53 42 43 62 63 67 68 52 48 56 53 52 48 43 36 38 40 38 38 33 37 42 37 35 32 37 46 42 39 43 42 57 80 74 71 66 63 68 62 63 61 58 57 53 42 44 39 34 22 15 13 10 359 333 326 315 310 301 294 286 261 251 284 89 56 34 6 347 342 333 328 312 273 258 262 271 284 286 280
60 67 74 60 54 62 58 56 49 44 48 49 49 63 61 51 46 44 45 47 39 34 35 38 39 41 39 36 29 31 27 25 29 48 68 59 57 61 60 62 62 54 61 66 68 63 64 62 65 64 55 40 32 46 28 20 20 16 9 5 1 351 342 343 347 351 357 26 32 22 24 14 11 4 4 4 7 1 324 310 306 281 270 274 344
62 54 53 65 60 53 53 50 52 55 54 48 43 39 43 43 50 51 49 45 52 39 33 34 36 34 39 38 34 30 28 27 17 358 16 88 75 83 82 84 71 68 73 77 78 84 71 68 74 75 67 55 38 34 36 26 23 25 21 24 36 19 353 338 344 12 34 27 27 20 14 9 5 11 14 20 23 27 23 19 21 5 341 307 297
67 59 69 69 58 53 54 53 48 49 54 54 51 53 48 40 31 31 40 48 42 41 36 31 35 38 35 37 33 35 32 29 15 10 2 6 68 71 85 78 95 100 90 80 85 80 71 77 83 76 82 87 61 49 39 33 29 30 34 32 29 15 349 344 35 35 36 36 25 14 11 359 0 15 28 29 31 36 40 46 23 24 22 27 22
72 68 58 62 70 62 50 48 48 48 53 54 51 49 45 41 42 31 24 32 48 45 40 36 28 34 39 32 31 21 30 38 29 10 13 15 2 63 58 85 119 119 109 112 103 87 75 75 82 85 90 90 86 72 53 57 46 51 40 42 38 27 2 31 43 45 35 30 27 17 9 355 2 16 27 31 33 35 44 38 35 37 38 35 42
67 60 63 62 66 65 62 51 46 44 49 51 50 51 44 41 30 30 40 34 30 33 39 45 33 22 26 42 35 27 16 21 42 31 18 13 18 5 25 54 57 17 146 133 118 122 130 98 76 77 96 111 117 126 97 87 57 67 82 66 51 40 31 30 38 40 39 17 18 15 356 349 11 16 24 43 46 45 47 39 39 39 47 49 56
70 68 62 59 58 57 58 57 51 45 39 44 46 48 40 45 42 25 30 33 38 35 14 30 46 39 15 19 53 48 28 14 13 48 40 26 16 14 12 359 354 349 34 44 91 143 161 105 104 116 94 81 108 143 149 145 145 117 61 88 79 66 54 49 52 40 20 34 245 264 310 16 23 13 21 27 33 27 29 33 30 29 32 38 37
86 73 65 73 70 64 62 59 50 42 49 44 38 30 36 32 35 49 40 34 20 21 33 14 10 53 67 22 11 58 72 36 22 10 55 58 45 31 13 6 6 7 351 347 13 327 63 111 152 130 130 123 127 57 66 140 183 190 168 293 118 123 125 120 122 155 210 239 253 233 127 79 63 43 32 36 42 15 18 48 43 39 41 29 24
71 58 60 59 62 58 60 64 63 41 42 39 38 36 15 14 32 23 43 41 33 5 8 26 352 358 12 358 66 352 67 102 64 77 38 44 72 53 33 26 18 1 359 2 352 11 15 358 2 38 119 138 123 91 48 10 21 358 330 162 214 206 155 146 231 174 209 228 267 283 224 236 238 216 160 180 189 137 39 40 49 67 71 57 45
79 88 90 85 61 66 45 38 52 57 42 43 22 38 27 5 12 22 16 24 15 32 358 21 8 10 355 343 356 327 310 128 158 171 76 81 92 97 81 54 45 9 8 6 360 11 9 4 348 13 356 16 57 55 39 360 347 348 338 345 338 357 9 335 341 2 333 308 258 243 262 242 230 250 232 184 167 148 183 93 67 107 91 121 159
86 54 41 48 53 47 35 34 42 28 17 46 24 9 17 358 32 14 12 358 355 336 343 20 358 51 360 330 328 347 323 329 328 131 66 42 28 38 112 120 18 102 121 24 16 21 5 350 3 21 9 9 11 15 6 10 300 332 315 323 335 331 344 330 9 5 337 307 289 230 235 233 214 191 220 162 160 210 173 162 195 162 173 220 135
133 117 100 113 71 54 33 5 9 12 333 41 355 352 11 359 22 350 31 329 360 335 331 25 7 36 24 333 321 358 336 329 330 72 120 77 43 72 48 89 162 209 124 164 162 126 152 345 357 44 55 9 349 320 301 301 301 299 269 241 249 264 277 281 304 318 298 294 285 291 261 264 268 204 166 183 203 190 169 178 165 174 236 214 137
142 174 136 55 55 19 9 3 0 342 317 3 348 321 341 329 8 337 35 350 357 333 341 353 8 15 356 315 308 335 353 313 327 330 133 143 134 99 62 53 52 84 33 338 302 287 194 186 168 22 17 172 244 256 283 299 311 300 292 282 271 263 267 270 292 333 321 291 295 251 221 220 227 201 189 201 204 190 181 187 163 181 182 162 198